CW3660 Weather Reports


Display with metric or nautical units.
time (UTC)temp
F
wind
direction
speed
MPH
gust
MPH
rain 1hr
in
rain 24hr
in
rain mn
in
humidity
%
barometer
mb
20260903133016 64 0.0 0.0 0.00 0.13 0.13 95 1014.3
20260903132016 63 0.0 0.0 0.00 0.13 0.13 95 1014.2
20260903131016 63 0.0 0.0 0.00 0.13 0.13 95 1014.3
20260903130016 63 0.0 2.0 0.00 0.13 0.13 95 1014.3
20260903125016 63 0.0 1.0 0.00 0.13 0.13 95 1014.4
20260903124016 63 0.0 1.0 0.00 0.13 0.13 95 1014.6
20260903123016 63 0.0 2.0 0.00 0.13 0.13 95 1014.7
20260903122016 63 0.0 1.0 0.00 0.13 0.13 95 1014.8
20260903121016 62 0.0 1.0 0.00 0.13 0.13 95 1014.9
20260903120016 62 0.0 1.0 0.01 0.13 0.13 95 1015.0
20260903115016 62 0.0 1.0 0.01 0.13 0.13 95 1015.1
20260903114016 62 0.0 1.0 0.01 0.13 0.13 94 1015.2
20260903113016 62 0.0 2.0 0.01 0.13 0.13 94 1015.1
20260903112036 62 0.0 0.0 0.01 0.13 0.13 94 1015.2
20260903111036 62 0.0 1.0 0.02 0.13 0.13 94 1015.1
20260903110015 62 0.0 1.0 0.02 0.12 0.12 94 1015.3
20260903105016 62 0.0 0.0 0.02 0.12 0.12 94 1015.3
20260903104016 62 0.0 1.0 0.04 0.12 0.12 93 1015.2
20260903103016 62 0.0 1.0 0.04 0.12 0.12 93 1015.3
20260903102015 62 0.0 0.0 0.05 0.12 0.12 93 1015.2
20260903101015 62 0.0 0.0 0.06 0.11 0.11 93 1015.0
20260903100016 62 225 1.0 3.0 0.05 0.10 0.10 93 1015.0
20260903095016 62 0.0 2.0 0.05 0.10 0.10 92 1015.1
20260903094016 62 0.0 0.0 0.03 0.08 0.08 92 1015.3
20260903093015 62 0.0 1.0 0.03 0.08 0.08 92 1015.3
20260903092035 62 0.0 1.0 0.02 0.07 0.07 91 1015.6
20260903091015 62 0.0 1.0 0.01 0.05 0.05 91 1015.4
20260903090015 62 0.0 1.0 0.04 0.05 0.05 90 1015.6
20260903085015 62 180 1.0 5.0 0.05 0.05 0.05 90 1015.6
20260903084015 63 158 1.0 3.0 0.05 0.05 0.05 88 1015.6
20260903083015 63 0.0 2.0 0.05 0.05 0.05 87 1015.9
20260903082035 64 158 1.0 5.0 0.05 0.05 0.05 86 1015.7
20260903081015 65 203 1.0 3.0 0.04 0.04 0.04 84 1015.8
20260903080017 65 180 2.0 8.0 0.01 0.01 0.01 82 1015.6
20260903075017 65 158 3.0 8.0 0.00 0.00 0.00 80 1015.6
20260903074017 65 158 1.0 4.0 0.00 0.00 0.00 81 1015.9
20260903073017 65 158 2.0 5.0 0.00 0.00 0.00 81 1016.0
20260903072017 65 158 2.0 6.0 0.00 0.00 0.00 81 1015.9
20260903071017 65 158 2.0 5.0 0.00 0.00 0.00 81 1015.9
20260903070037 65 158 3.0 9.0 0.00 0.00 0.00 81 1016.1
20260903065017 65 158 3.0 6.0 0.00 0.00 0.00 81 1016.4
20260903064017 65 180 3.0 6.0 0.00 0.00 0.00 81 1016.9
20260903063017 65 158 2.0 6.0 0.00 0.00 0.00 81 1017.1
20260903062017 65 180 2.0 5.0 0.00 0.00 0.00 81 1017.4
20260903061017 65 180 3.0 8.0 0.00 0.00 0.00 81 1017.6
20260903060037 65 180 3.0 7.0 0.00 0.00 0.00 82 1017.8
20260903055017 65 158 2.0 5.0 0.00 0.00 0.00 82 1018.1
20260903054017 65 158 3.0 8.0 0.00 0.00 0.00 82 1018.2
20260903053015 65 180 3.0 9.0 0.00 0.00 0.00 83 1018.1
20260903052017 65 180 4.0 9.0 0.00 0.00 0.00 83 1017.9
20260903051017 65 158 3.0 7.0 0.00 0.00 0.00 82 1017.9
20260903050017 65 158 2.0 6.0 0.00 0.00 0.00 82 1018.1
20260903045037 65 180 2.0 6.0 0.00 0.00 0.00 82 1018.3
20260903044017 65 180 2.0 6.0 0.00 0.00 0.00 82 1018.6
20260903043017 65 180 2.0 5.0 0.00 0.00 0.00 82 1018.5
20260903042017 65 158 2.0 6.0 0.00 0.00 0.00 83 1018.4
20260903041037 65 158 2.0 5.0 0.00 0.00 0.00 84 1018.3
20260903040017 65 158 2.0 5.0 0.00 0.00 0.00 84 1018.5
20260903035015 65 158 2.0 5.0 0.00 0.00 0.00 84 1018.4
20260903034015 66 158 2.0 8.0 0.00 0.00 0.00 84 1018.4
20260903033015 66 180 2.0 6.0 0.00 0.00 0.00 84 1018.7
20260903032035 66 180 2.0 7.0 0.00 0.00 0.00 84 1018.9
20260903031056 66 135 1.0 4.0 0.00 0.00 0.00 84 1018.9
20260903030037 66 180 2.0 6.0 0.00 0.00 0.00 84 1019.1
20260903025017 66 158 1.0 4.0 0.00 0.00 0.00 84 1019.1
20260903024017 66 135 1.0 2.0 0.00 0.00 0.00 84 1019.3
20260903023037 66 180 1.0 3.0 0.00 0.00 0.00 84 1019.3
20260903022037 66 180 1.0 2.0 0.00 0.00 0.00 84 1019.2
20260903021017 66 113 1.0 4.0 0.00 0.00 0.00 83 1019.2
20260903020017 66 113 1.0 3.0 0.00 0.00 0.00 83 1019.4
20260903015017 66 158 1.0 5.0 0.00 0.00 0.00 83 1019.6
20260903014017 66 158 2.0 6.0 0.00 0.00 0.00 83 1019.6
20260903013017 66 180 2.0 5.0 0.00 0.00 0.00 82 1019.4
20260903012017 66 180 3.0 6.0 0.00 0.00 0.00 82 1019.1
20260903011017 66 158 3.0 7.0 0.00 0.00 0.00 82 1019.3
20260903010017 66 180 2.0 8.0 0.00 0.00 0.00 81 1019.3
20260903005017 66 158 2.0 7.0 0.00 0.00 0.00 80 1019.1
20260903004017 66 158 2.0 6.0 0.00 0.00 0.00 80 1019.3
20260903003017 66 180 2.0 6.0 0.00 0.00 0.00 79 1019.4
20260903002017 66 158 3.0 8.0 0.00 0.00 0.00 78 1019.5
20260903001017 67 180 3.0 6.0 0.00 0.00 0.00 77 1019.4
20260903000017 67 135 1.0 4.0 0.00 0.00 0.00 76 1019.8
20260902235017 67 158 2.0 4.0 0.00 0.00 0.00 75 1020.0
20260902234057 68 135 2.0 4.0 0.00 0.00 0.00 74 1020.0
20260902233017 68 158 3.0 5.0 0.00 0.00 0.00 73 1020.0
20260902232017 68 158 2.0 7.0 0.00 0.00 0.00 72 1020.2
20260902231017 68 135 3.0 9.0 0.00 0.00 0.00 70 1020.0
20260902230017 69 158 4.0 11.0 0.00 0.00 0.00 69 1020.1
20260902225017 69 158 3.0 9.0 0.00 0.00 0.00 68 1020.2
20260902224017 69 135 3.0 8.0 0.00 0.00 0.00 67 1020.3
20260902223117 70 158 3.0 5.0 0.00 0.00 0.00 66 1020.4
20260902222017 70 158 2.0 6.0 0.00 0.00 0.00 65 1020.6
20260902221017 70 158 2.0 7.0 0.00 0.00 0.00 64 1020.4
20260902220017 70 135 4.0 9.0 0.00 0.00 0.00 62 1020.4
20260902215017 70 158 4.0 10.0 0.00 0.00 0.00 63 1020.2
20260902214017 71 180 3.0 9.0 0.00 0.00 0.00 62 1020.3
20260902213017 71 135 3.0 7.0 0.00 0.00 0.00 61 1020.4
20260902212037 71 135 4.0 10.0 0.00 0.00 0.00 62 1020.2
20260902211037 72 180 3.0 10.0 0.00 0.00 0.00 65 1019.9
20260902210017 72 158 3.0 10.0 0.00 0.00 0.00 65 1020.0
20260902205017 72 158 4.0 12.0 0.00 0.00 0.00 63 1020.3
20260902204017 72 158 3.0 7.0 0.00 0.00 0.00 63 1020.4
20260902203017 72 158 3.0 9.0 0.00 0.00 0.00 63 1020.5
20260902202017 73 158 4.0 10.0 0.00 0.00 0.00 63 1020.7
20260902201016 73 113 3.0 10.0 0.00 0.00 0.00 60 1020.9
20260902200036 73 203 3.0 9.0 0.00 0.00 0.00 62 1020.8
20260902195017 73 158 3.0 8.0 0.00 0.00 0.00 60 1020.9
20260902194016 73 158 4.0 10.0 0.00 0.01 0.00 61 1020.9
20260902193016 73 158 3.0 8.0 0.00 0.01 0.00 59 1021.0
20260902192017 73 158 3.0 8.0 0.00 0.01 0.00 58 1021.1
20260902191036 73 158 4.0 9.0 0.00 0.03 0.00 56 1021.1
20260902190036 73 158 4.0 12.0 0.00 0.04 0.00 55 1020.9
20260902185037 74 135 4.0 9.0 0.00 0.07 0.00 56 1021.1
20260902184016 74 180 4.0 11.0 0.00 0.14 0.00 57 1021.2
20260902183016 74 180 4.0 9.0 0.00 0.21 0.00 58 1021.0
20260902182016 74 158 3.0 10.0 0.00 0.22 0.00 62 1020.9
20260902181016 74 180 3.0 10.0 0.00 0.22 0.00 63 1020.9
20260902180016 73 113 3.0 11.0 0.00 0.23 0.00 63 1021.0
20260902175016 74 180 3.0 9.0 0.00 0.23 0.00 63 1021.0
20260902174036 74 158 3.0 7.0 0.00 0.23 0.00 62 1021.0
20260902173036 74 113 3.0 7.0 0.00 0.23 0.00 64 1021.1
20260902172016 74 158 4.0 9.0 0.00 0.25 0.00 62 1021.1
20260902171016 75 158 3.0 8.0 0.00 0.26 0.00 62 1021.2
20260902170016 74 158 4.0 10.0 0.00 0.27 0.00 62 1021.2
20260902165016 74 158 4.0 10.0 0.00 0.28 0.00 64 1021.3
20260902164016 74 158 3.0 12.0 0.00 0.28 0.00 64 1021.4
20260902163016 74 180 2.0 12.0 0.00 0.28 0.00 66 1021.5
20260902162016 73 158 4.0 8.0 0.00 0.28 0.00 67 1021.6
20260902161016 72 158 3.0 9.0 0.00 0.28 0.00 70 1021.7
20260902160016 72 158 3.0 8.0 0.00 0.28 0.00 70 1021.7
20260902155016 72 158 3.0 9.0 0.00 0.28 0.00 73 1021.8
20260902154016 72 158 3.0 8.0 0.00 0.28 0.00 74 1022.0
20260902153017 72 158 3.0 8.0 0.00 0.28 0.00 73 1022.2
20260902152036 71 158 4.0 9.0 0.00 0.28 0.00 74 1022.2
20260902151016 71 113 2.0 8.0 0.00 0.28 0.00 75 1022.2
20260902150016 71 113 1.0 5.0 0.00 0.28 0.00 78 1022.2
20260902145016 70 158 2.0 7.0 0.00 0.28 0.00 80 1022.2
20260902144016 69 135 1.0 3.0 0.00 0.28 0.00 83 1022.0
20260902143016 69 113 1.0 5.0 0.00 0.28 0.00 84 1022.0
20260902142016 68 135 1.0 4.0 0.00 0.28 0.00 86 1022.1
20260902141016 68 180 1.0 8.0 0.00 0.28 0.00 89 1021.8
20260902140016 67 158 1.0 5.0 0.00 0.28 0.00 91 1021.4
20260902135036 66 158 1.0 7.0 0.00 0.28 0.00 92 1021.5
20260902134016 66 180 2.0 6.0 0.00 0.28 0.00 94 1021.4